Volver al catálogo

DELTA 1 DEB

ActivoSSO
NORAD 40766·DEBRIS·🇺🇸 United States

Lanzado Jul 29, 1976 desde Vandenberg Space Force Base

Loading…

Próximos Pases (próximas 24 horas)

TLE

ActualizadoSource: Space-Track

Época: Sep 12, 2026, 04:34 UTC

1 40766U 76077GK  26255.19087178  .00000001  00000-0  39786-3 0  9998
2 40766 102.1232 152.3411 0103085  51.1951 102.5826 12.23260535131594

Sigue DELTA 1 DEB en tiempo real con AllMySat

Download on the App Store